Location: Baller�as
(41.9020°N, 0.1554°W)
Time: 09:53:20
(UTC+00:00)

SL-24 R/B - RUBIN 2 - Pass Details

Date: 10 August 2020
Orbit: 569 x 1026 km, 64.6° (Epoch: 22 September)

Event Time Altitude Azimuth Distance (km) Brightness Sun altitude
Rises 20:27:03 0° 327° (NNW) 3,774 9.0 -13.9°
Reaches altitude 10° 20:29:45 10° 328° (NNW) 2,801 8.0 -14.3°
Maximum altitude 20:36:25 78° 55° (NE) 990 4.5 -15.3°
Enters shadow 20:40:25 23° 139° (SE) 1,839 5.3 -15.8°
